Location: Fort Worth, Tx
(32.7431°N, 97.3695°W)
Time: 05:50:36
(UTC-05:00)

S-56A Canister/Altair - Visible Passes

Search period start: 28 January 2023 00:00
Search period end: 07 February 2023 00:00
Orbit: 638 x 2493 km, 38.9° (Epoch: 26 January)

Date Brightness Start Highest point End Pass type
(mag) Time Alt. Az. Time Alt. Az. Time Alt. Az.
28 Jan 10.0 19:59:07 10° WNW 20:08:44 59° SSW 20:22:18 10° SE visible
28 Jan 11.3 22:05:47 10° W 22:14:22 22° SW 22:24:24 10° S visible
29 Jan 9.8 19:26:23 10° WNW 19:35:27 64° SSW 19:48:40 10° SE visible
29 Jan 11.2 21:32:20 10° W 21:41:02 25° SW 21:51:37 10° S visible
30 Jan 11.1 20:59:04 10° W 21:07:44 28° SW 21:18:39 10° SSE visible
31 Jan 10.9 20:25:59 10° W 20:34:27 31° SW 20:45:33 10° SSE visible
01 Feb 10.8 19:53:01 10° W 20:01:13 34° SW 20:12:20 10° SSE visible
02 Feb 10.7 19:20:09 10° W 19:28:02 37° SW 19:39:02 10° SSE visible
03 Feb 11.8 20:57:04 10° WSW 21:00:13 11° SW 21:03:37 10° SSW visible
04 Feb 11.7 20:22:45 10° WSW 20:27:02 13° SW 20:31:54 10° SSW visible
05 Feb 11.7 19:49:02 10° WSW 19:53:53 15° SW 19:59:36 10° S visible
